| time (UTC) | temp F | wind direction | speed knots | gust knots | rain 1hr in | rain 24hr in | rain mn in | humidity % | barometer mb |
| 20260510201545 | 46 | 301 | 7.0 | 20.9 | 0.00 | 0.08 | 0.00 | 53 | 1016.3 |
| 20260510200037 | 46 | 332 | 9.6 | 16.5 | 0.00 | 0.08 | 0.00 | 50 | 1016.3 |
| 20260510194546 | 47 | 312 | 9.6 | 24.3 | 0.00 | 0.08 | 0.00 | 50 | 1016.1 |
| 20260510193041 | 46 | 277 | 9.6 | 20.0 | 0.00 | 0.08 | 0.00 | 49 | 1016.1 |
| 20260510191538 | 47 | 302 | 9.6 | 16.5 | 0.00 | 0.08 | 0.00 | 49 | 1015.9 |
| 20260510190038 | 46 | 275 | 10.4 | 20.0 | 0.00 | 0.08 | 0.00 | 55 | 1015.9 |
| 20260510184538 | 46 | 294 | 8.7 | 24.3 | 0.00 | 0.08 | 0.00 | 51 | 1015.6 |
| 20260510183046 | 46 | 294 | 7.8 | 17.4 | 0.00 | 0.08 | 0.00 | 54 | 1015.5 |
| 20260510181543 | 47 | 315 | 4.3 | 22.6 | 0.00 | 0.08 | 0.00 | 61 | 1015.2 |
| 20260510180045 | 45 | 327 | 9.6 | 18.2 | 0.00 | 0.08 | 0.00 | 59 | 1015.2 |
| 20260510174537 | 46 | 30 | 8.7 | 21.7 | 0.00 | 0.08 | 0.00 | 56 | 1015.0 |
| 20260510173043 | 46 | 302 | 7.0 | 21.7 | 0.00 | 0.08 | 0.00 | 61 | 1015.0 |
| 20260510171542 | 45 | 277 | 9.6 | 18.2 | 0.00 | 0.08 | 0.00 | 59 | 1014.9 |
| 20260510170043 | 46 | 284 | 10.4 | 19.1 | 0.00 | 0.08 | 0.00 | 62 | 1014.9 |
| 20260510164548 | 45 | 326 | 9.6 | 17.4 | 0.00 | 0.08 | 0.00 | 59 | 1014.7 |
| 20260510163038 | 45 | 257 | 7.8 | 16.5 | 0.00 | 0.08 | 0.00 | 61 | 1014.7 |
| 20260510161537 | 44 | 288 | 6.1 | 18.2 | 0.00 | 0.08 | 0.00 | 63 | 1014.6 |
| 20260510160036 | 45 | 289 | 9.6 | 20.0 | 0.00 | 0.08 | 0.00 | 61 | 1014.6 |
| 20260510154547 | 45 | 317 | 9.6 | 19.1 | 0.00 | 0.08 | 0.00 | 59 | 1014.5 |
| 20260510153038 | 44 | 321 | 11.3 | 17.4 | 0.00 | 0.08 | 0.00 | 64 | 1014.3 |
| 20260510151542 | 44 | 323 | 11.3 | 20.0 | 0.00 | 0.08 | 0.00 | 62 | 1014.0 |
| 20260510150043 | 44 | 316 | 10.4 | 17.4 | 0.00 | 0.08 | 0.00 | 62 | 1013.8 |
| 20260510144550 | 43 | 324 | 10.4 | 19.1 | 0.00 | 0.08 | 0.00 | 66 | 1013.5 |
| 20260510143054 | 43 | 283 | 8.7 | 17.4 | 0.00 | 0.08 | 0.00 | 66 | 1013.4 |
| 20260510141537 | 42 | 329 | 11.3 | 17.4 | 0.00 | 0.08 | 0.00 | 71 | 1013.2 |
| 20260510140042 | 42 | 320 | 7.0 | 18.2 | 0.00 | 0.08 | 0.00 | 69 | 1013.1 |
| 20260510134538 | 41 | 348 | 9.6 | 18.2 | 0.00 | 0.08 | 0.00 | 69 | 1013.1 |
| 20260510133037 | 40 | 313 | 7.8 | 15.6 | 0.00 | 0.08 | 0.00 | 73 | 1012.8 |
| 20260510131548 | 39 | 309 | 8.7 | 16.5 | 0.00 | 0.08 | 0.00 | 76 | 1012.8 |
| 20260510130043 | 39 | 323 | 9.6 | 16.5 | 0.00 | 0.08 | 0.00 | 78 | 1012.5 |
| 20260510124540 | 39 | 286 | 5.2 | 14.8 | 0.00 | 0.08 | 0.00 | 79 | 1012.3 |
| 20260510123038 | 38 | 265 | 7.0 | 15.6 | 0.00 | 0.08 | 0.00 | 78 | 1012.2 |
| 20260510121539 | 37 | 275 | 5.2 | 17.4 | 0.00 | 0.08 | 0.00 | 80 | 1012.1 |
| 20260510120044 | 36 | 268 | 6.1 | 13.0 | 0.00 | 0.08 | 0.00 | 79 | 1011.8 |
| 20260510114542 | 36 | 274 | 4.3 | 13.9 | 0.00 | 0.08 | 0.00 | 80 | 1011.5 |
| 20260510113040 | 35 | 269 | 5.2 | 12.2 | 0.00 | 0.08 | 0.00 | 82 | 1011.4 |
| 20260510111539 | 35 | 299 | 4.3 | 10.4 | 0.00 | 0.08 | 0.00 | 83 | 1011.1 |
| 20260510110038 | 34 | 273 | 5.2 | 11.3 | 0.00 | 0.08 | 0.00 | 84 | 1010.9 |
| 20260510104538 | 34 | 285 | 7.8 | 12.2 | 0.00 | 0.08 | 0.00 | 84 | 1010.6 |
| 20260510103037 | 34 | 282 | 6.1 | 13.9 | 0.00 | 0.08 | 0.00 | 84 | 1010.0 |
| 20260510101537 | 34 | 275 | 5.2 | 10.4 | 0.00 | 0.08 | 0.00 | 85 | 1009.7 |
| 20260510100040 | 34 | 314 | 3.5 | 11.3 | 0.00 | 0.08 | 0.00 | 84 | 1009.3 |
| 20260510094539 | 34 | 302 | 4.3 | 10.4 | 0.00 | 0.08 | 0.00 | 84 | 1009.1 |
| 20260510093038 | 34 | 319 | 6.1 | 11.3 | 0.00 | 0.08 | 0.00 | 84 | 1009.0 |
| 20260510091545 | 34 | 289 | 6.1 | 15.6 | 0.00 | 0.08 | 0.00 | 83 | 1008.8 |
| 20260510090053 | 35 | 322 | 7.8 | 13.9 | 0.00 | 0.08 | 0.00 | 82 | 1008.6 |
| 20260510084543 | 35 | 287 | 7.8 | 14.8 | 0.00 | 0.08 | 0.00 | 81 | 1008.6 |
| 20260510083038 | 35 | 274 | 5.2 | 13.9 | 0.00 | 0.08 | 0.00 | 82 | 1008.3 |
| 20260510081538 | 35 | 291 | 5.2 | 12.2 | 0.00 | 0.08 | 0.00 | 81 | 1008.2 |
| 20260510080045 | 35 | 286 | 3.5 | 11.3 | 0.00 | 0.08 | 0.00 | 82 | 1008.2 |
| 20260510074547 | 35 | 290 | 4.3 | 10.4 | 0.00 | 0.08 | 0.00 | 83 | 1008.2 |
| 20260510073103 | 35 | 298 | 4.3 | 10.4 | 0.00 | 0.08 | 0.00 | 82 | 1008.0 |
| 20260510071543 | 35 | 277 | 5.2 | 9.6 | 0.00 | 0.08 | 0.00 | 82 | 1007.9 |
| 20260510070042 | 36 | 272 | 3.5 | 10.4 | 0.00 | 0.08 | 0.00 | 81 | 1007.8 |
| 20260510064554 | 36 | 321 | 5.2 | 13.9 | 0.00 | 0.08 | 0.00 | 80 | 1007.7 |
| 20260510063038 | 36 | 321 | 7.0 | 12.2 | 0.00 | 0.08 | 0.00 | 81 | 1007.6 |
| 20260510061537 | 36 | 271 | 6.1 | 13.0 | 0.00 | 0.08 | 0.00 | 81 | 1007.4 |
| 20260510060038 | 37 | 281 | 7.0 | 13.9 | 0.00 | 0.08 | 0.00 | 80 | 1007.6 |
| 20260510054544 | 37 | 292 | 5.2 | 10.4 | 0.00 | 0.08 | 0.00 | 80 | 1007.3 |
| 20260510053045 | 38 | 284 | 6.1 | 11.3 | 0.00 | 0.08 | 0.00 | 79 | 1007.2 |
| 20260510051548 | 38 | 303 | 5.2 | 13.0 | 0.00 | 0.08 | 0.00 | 78 | 1007.0 |
| 20260510050037 | 39 | 301 | 7.0 | 13.0 | 0.00 | 0.08 | 0.00 | 78 | 1007.0 |
| 20260510044537 | 40 | 286 | 6.1 | 14.8 | 0.00 | 0.08 | 0.00 | 74 | 1006.6 |
| 20260510043044 | 40 | 313 | 3.5 | 11.3 | 0.00 | 0.08 | 0.00 | 74 | 1006.6 |
| 20260510041542 | 41 | 288 | 4.3 | 9.6 | 0.00 | 0.08 | 0.00 | 73 | 1006.4 |
| 20260510040045 | 41 | 76 | 3.5 | 7.0 | 0.00 | 0.08 | 0.00 | 72 | 1006.3 |
| 20260510034549 | 42 | 325 | 2.6 | 8.7 | 0.00 | 0.08 | 0.08 | 71 | 1006.1 |
| 20260510033040 | 42 | 280 | 3.5 | 7.8 | 0.00 | 0.08 | 0.08 | 70 | 1006.0 |
| 20260510031544 | 43 | 297 | 3.5 | 7.0 | 0.00 | 0.08 | 0.08 | 71 | 1005.6 |
| 20260510030042 | 43 | 278 | 2.6 | 7.8 | 0.00 | 0.08 | 0.08 | 73 | 1005.9 |
| 20260510024542 | 43 | 294 | 3.5 | 8.7 | 0.00 | 0.08 | 0.08 | 72 | 1005.7 |
| 20260510023038 | 43 | 262 | 3.5 | 7.8 | 0.00 | 0.08 | 0.08 | 74 | 1005.7 |
| 20260510021538 | 44 | 262 | 2.6 | 11.3 | 0.00 | 0.08 | 0.08 | 74 | 1005.6 |
| 20260510020044 | 44 | 330 | 6.1 | 9.6 | 0.00 | 0.08 | 0.08 | 72 | 1005.4 |
| 20260510014538 | 44 | 318 | 4.3 | 8.7 | 0.00 | 0.08 | 0.08 | 74 | 1005.1 |
| 20260510013037 | 45 | 319 | 3.5 | 10.4 | 0.00 | 0.08 | 0.08 | 74 | 1004.6 |
| 20260510011541 | 45 | 327 | 5.2 | 11.3 | 0.00 | 0.08 | 0.08 | 76 | 1004.0 |
| 20260510010044 | 46 | 329 | 8.7 | 12.2 | 0.00 | 0.08 | 0.08 | 75 | 1003.7 |
| 20260510004540 | 46 | 312 | 7.0 | 12.2 | 0.00 | 0.08 | 0.08 | 79 | 1003.6 |
| 20260510003046 | 47 | 317 | 9.6 | 16.5 | 0.00 | 0.08 | 0.08 | 76 | 1003.4 |
| 20260510001543 | 49 | 329 | 13.0 | 17.4 | 0.00 | 0.08 | 0.08 | 76 | 1002.9 |
| 20260510000046 | 51 | 313 | 6.1 | 11.3 | 0.00 | 0.08 | 0.08 | 76 | 1002.8 |
| 20260509234541 | 51 | 267 | 6.1 | 18.2 | 0.00 | 0.08 | 0.08 | 78 | 1002.4 |
| 20260509233038 | 51 | 278 | 7.8 | 13.0 | 0.00 | 0.08 | 0.08 | 83 | 1002.2 |
| 20260509231538 | 51 | 261 | 7.0 | 9.6 | 0.00 | 0.08 | 0.08 | 87 | 1001.9 |
| 20260509230038 | 50 | 269 | 6.1 | 12.2 | 0.00 | 0.08 | 0.08 | 89 | 1001.8 |
| 20260509224534 | 50 | 245 | 7.0 | 11.3 | 0.00 | 0.08 | 0.08 | 89 | 1001.5 |
| 20260509223045 | 50 | 242 | 4.3 | 8.7 | 0.00 | 0.08 | 0.08 | 91 | 1001.2 |
| 20260509221543 | 50 | 253 | 4.3 | 12.2 | 0.00 | 0.08 | 0.08 | 90 | 1001.1 |
| 20260509220043 | 50 | 252 | 5.2 | 12.2 | 0.05 | 0.08 | 0.08 | 90 | 1001.0 |
| 20260509214605 | 49 | 267 | 4.3 | 9.6 | 0.06 | 0.08 | 0.08 | 91 | 1001.0 |
| 20260509213038 | 47 | 272 | 4.3 | 7.8 | 0.08 | 0.08 | 0.08 | 93 | 1001.4 |
| 20260509211538 | 46 | 278 | 5.2 | 11.3 | 0.08 | 0.08 | 0.08 | 94 | 1001.5 |
| 20260509210045 | 46 | 242 | 9.6 | 21.7 | 0.03 | 0.03 | 0.03 | 92 | 1001.9 |
| 20260509204542 | 51 | 284 | 14.8 | 21.7 | 0.02 | 0.02 | 0.02 | 83 | 1001.7 |
| 20260509203042 | 54 | 240 | 7.8 | 17.4 | 0.00 | 0.00 | 0.00 | 73 | 1000.5 |